Location: Beloeil
(45.5670°N, 73.2000°W)
Time: 21:41:47
(UTC-05:00)

Daily predictions for brighter satellites

Satellite Brightness Start Highest point End
(mag) Time Altitude Azimuth Time Altitude Azimuth Time Altitude Azimuth
Cosmos 1300 Rocket 4.2 16:34:48 10° NNW 16:39:09 63° W 16:43:30 10° S
Meteor 1-4 Rocket 2.6 16:37:12 10° N 16:40:54 90° W 16:44:30 10° S
Cosmos 1484 Rocket 3.4 16:37:34 10° SE 16:41:15 36° ENE 16:44:58 10° N
YAOGAN 1 3.8 16:38:53 10° ESE 16:42:07 21° ENE 16:45:22 10° NNE
ISS -3.3 16:39:51 10° NW 16:43:01 42° NNE 16:46:10 10° E
Cosmos 2297 Rocket 3.2 16:39:33 10° N 16:44:07 24° NE 16:48:40 10° ESE
Abrixas rocket 3.2 16:42:35 10° SW 16:45:37 36° SSE 16:48:37 10° E
ERS-2 4.0 16:45:49 10° E 16:47:24 12° ENE 16:49:00 10° NE
Cosmos 1943 Rocket 3.2 16:43:13 10° SW 16:48:35 44° NW 16:54:00 10° NNE
CZ-4 R/B 2.1 16:45:58 10° SE 16:49:20 29° ENE 16:52:47 10° N
Meteor 1-18 Rocket 4.3 16:44:16 10° S 16:49:42 58° E 16:55:15 10° NNE
COSMO-SKYMED 1 4.3 16:50:44 10° NE 16:53:16 15° E 16:55:48 10° SE
ATLAS 2AS CENTAUR R/B 3.5 16:48:29 10° S 16:55:43 45° ESE 17:03:20 10° NE
Cosmos 1812 3.2 16:53:46 10° SSW 16:57:37 64° W 17:01:29 10° N
SJ-12 4.1 16:54:29 10° S 16:58:36 78° WSW 17:02:44 10° NNW
NOSS 2-3 (E) 3.9 16:54:16 10° SSW 16:58:55 75° SE 17:04:24 10° NE
Cosmos 2150 Rocket 4.4 16:53:42 10° S 16:58:56 48° ESE 17:04:10 10° NNE
Cosmos 1666 3.4 16:57:55 10° N 17:01:18 31° ENE 17:04:39 10° SE
ATLAS 3B R/B 2.9 16:54:56 10° NNW 17:01:27 48° NE 17:07:44 10° ESE
Cosmos 1975 Rocket 3.1 17:00:41 10° S 17:05:05 63° E 17:09:33 10° NNE
SJ-7 4.3 17:01:22 10° SSE 17:05:22 73° ENE 17:09:22 10° N
IRAS Rocket 4.2 17:02:07 10° SSE 17:07:36 86° ENE 17:13:08 10° NNW
SJ 16-02 3.0 17:07:22 10° SE 17:09:50 15° E 17:10:58 14° ENE
Okean 1 Rocket 4.2 17:05:36 10° NNW 17:09:55 48° W 17:14:13 10° SSW
BREEZE-M DEB (TANK) 2.5 17:08:47 10° W 17:10:56 51° N 17:13:51 15° ENE
NOSS 3-1 (A) 4.5 17:06:08 10° WSW 17:11:42 40° NW 17:18:01 10° NNE
USA 215 4.0 17:06:23 10° SE 17:12:48 58° SW 17:19:14 10° WNW
SPOT 3 Rocket 4.4 17:08:38 10° ESE 17:12:59 28° ENE 17:17:20 10° N
Cosmos 158 Rocket 4.4 17:09:24 10° N 17:14:09 36° ENE 17:18:46 10° SE
CSL-04 Debris 4.2 17:10:01 10° SSE 17:15:25 87° ENE 17:20:51 10° NNW
Cosmos 1634 Rocket 4.3 17:12:01 10° SSW 17:18:13 73° W 17:24:30 10° N
Meteor 1-19 Rocket 4.5 17:14:56 10° SSE 17:20:20 48° E 17:25:52 10° NNE
USA 161 3.7 17:18:39 10° NNW 17:21:03 26° WNW 17:23:33 10° SW
Cosmos 1655 Rocket 4.1 17:20:36 10° N 17:27:01 88° E 17:33:25 10° S
Cosmos 1536 Rocket 4.0 17:29:15 10° SSE 17:33:17 38° E 17:36:25 15° NNE
EO 1 Del DPAF 4.2 17:32:41 24° ENE 17:33:46 28° E 17:37:05 10° SSE
NOSS 2-3 (C) 4.3 17:29:53 10° SW 17:34:35 63° NW 17:39:23 14° NNE
Meteor 1-28 Rocket 3.1 17:30:52 10° NNE 17:34:38 86° E 17:38:24 10° SSW
CSL-04 Rocket 4.4 17:31:33 10° S 17:36:51 57° WSW 17:42:18 10° NNW
MOS 1 4.3 17:31:48 10° SE 17:37:21 56° ENE 17:42:54 10° N
Cosmos 2369 Rocket 4.5 17:35:08 10° WNW 17:38:25 16° NW 17:41:44 10° N
Cosmos 1898 Rocket 4.4 17:34:15 10° SW 17:39:17 49° WNW 17:44:25 10° NNE
Cosmos 1743 2.8 17:35:29 10° N 17:39:22 79° W 17:43:15 10° S
Cosmos 1269 Rocket 4.4 17:35:01 10° N 17:40:00 39° ENE 17:44:56 10° SE
FENGYUN 3A 3.9 17:35:11 10° SE 17:40:17 45° ENE 17:45:23 10° N
Ariane Rocket 3.7 17:35:54 10° S 17:40:52 58° WSW 17:45:53 10° NNW
Cosmos 1818 4.5 17:36:20 10° WSW 17:41:31 44° NW 17:46:17 12° NNE
SKYMED 2 3.9 17:38:35 17° NNE 17:41:44 45° E 17:45:53 10° S
Cosmos 2266 Rocket 4.0 17:35:51 10° N 17:41:49 57° ENE 17:47:50 10° SSE
Cosmos 389 Rocket 3.2 17:40:08 10° NNW 17:43:34 53° W 17:46:56 10° S
Cosmos 1697 Rocket 3.8 17:39:40 10° SSE 17:43:55 22° E 17:44:23 22° E
CENTAUR R/B 3.8 17:37:32 10° NNW 17:44:03 30° NNE 17:47:34 22° ENE
CZ-2C R/B 3.7 17:40:44 10° NNE 17:45:25 83° ESE 17:50:10 10° SSW
Cosmos 2082 3.7 17:41:40 10° NNW 17:47:15 59° ENE 17:52:47 10° SE
METEOR-M 4.0 17:43:36 10° SSE 17:48:56 84° ENE 17:54:19 10° NNW
NOAA 12 4.2 17:44:37 10° SE 17:49:43 53° ENE 17:54:50 10° N
Cosmos 1125 Rocket 3.9 17:45:53 10° S 17:50:53 44° ESE 17:53:17 27° NE
SMAP 4.3 17:47:02 10° S 17:51:29 45° W 17:55:58 10° NNW
IRS-1A Rocket 4.4 17:46:09 10° S 17:51:46 77° WSW 17:57:19 10° NNW
Cosmos 1937 Rocket 4.3 17:48:56 10° SW 17:53:57 50° WNW 17:58:59 10° NNE
Atlas Centaur 2 4.1 17:53:44 10° SSW 17:55:30 12° S 17:57:10 10° SSE
Cosmos 724 4.2 17:50:22 10° NNW 17:56:09 65° NE 18:01:55 10° SE
Cosmos 1048 Rocket 4.0 17:52:50 10° NNW 17:58:13 66° ENE 18:03:33 10° SSE
Landsat 4 3.6 17:58:14 22° NNE 18:00:37 89° ESE 18:04:26 10° SSW
Cosmos 2227 Rocket 2.2 17:55:48 10° NNW 18:01:30 89° WSW 18:07:09 10° SSE
USA 238 DEB 3.8 17:54:25 10° NW 18:01:33 84° SW 18:08:45 10° SSE
USA 238 3.8 17:54:31 10° NW 18:01:39 84° SW 18:08:52 10° SSE
Meteor 1-23 Rocket 4.4 17:56:58 10° SSE 18:02:31 52° E 18:06:17 20° NNE
ALOS 2.1 17:58:05 10° SSE 18:02:43 70° ENE 18:07:23 10° N
DELTA 2 R/B (1) 4.3 17:58:43 10° WSW 18:03:59 45° S 18:06:33 27° ESE
Cosmos 1271 Rocket 4.2 18:03:26 10° NNW 18:06:58 38° W 18:10:32 10° SSW
Cosmos 1455 Rocket 4.0 18:04:43 10° NNW 18:09:00 48° W 18:13:13 10° SSW
Meteor 2-9 Rocket 4.3 18:06:29 10° NNW 18:12:04 76° W 18:17:27 10° S
YAOGAN 1 3.8 18:13:51 10° S 18:17:57 42° W 18:22:05 10° NNW
ISS -2.7 18:16:24 10° WNW 18:19:30 40° SW 18:19:54 38° SSW
ERS-2 2.7 18:17:01 10° S 18:20:37 57° WSW 18:24:15 10° NNW
Cosmos 372 Rocket 3.8 18:16:26 10° SSW 18:21:38 77° ESE 18:23:18 44° NNE
BREEZE-M DEB (TANK) 3.6 18:19:05 10° WNW 18:22:04 89° NE 18:23:32 46° ESE
Abrixas rocket 3.0 18:18:51 10° W 18:21:25 48° WNW 18:21:25 48° WNW
Cosmos 1980 Rocket 3.7 18:18:41 10° SSE 18:20:55 20° SE 18:20:55 20° SE
CZ-4 R/B 3.8 18:21:19 10° SSW 18:24:24 23° W 18:27:34 10° NW
Gblst 52 Del rocket 4.2 18:19:30 10° WNW 18:25:09 68° NNE 18:26:35 50° E
Cosmos 2297 Rocket 2.5 18:23:02 10° NNW 18:28:40 65° WSW 18:34:14 10° SSE
COSMO-SKYMED 1 3.1 18:27:10 22° N 18:29:47 56° WNW 18:34:02 10° SSW
NOSS 3-2 (A) 3.9 18:24:54 10° NW 18:32:24 90° WSW 18:40:02 12° SE
NOSS 3-2 (C) 3.9 18:30:33 10° NW 18:38:01 80° NE 18:42:30 30° SE
Meteor 2-4 Rocket 4.4 18:36:50 10° SSW 18:42:08 51° WNW 18:46:54 13° N
ATLAS 2AS CENTAUR R/B 3.6 18:38:59 10° WSW 18:46:42 55° NW 18:51:14 27° NNE
SJ 16-02 1.8 18:43:36 10° SSW 18:47:55 57° WNW 18:48:01 57° WNW
ATLAS 3B R/B 3.7 18:45:54 10° NW 18:52:03 41° WSW 18:58:04 10° S
Cosmos 1656 3.7 18:46:51 10° SSW 18:52:26 74° WNW 18:53:15 62° N
Meteor 2-11 Rocket 4.4 18:52:19 10° SSW 18:58:29 81° W 19:00:57 39° N
Cosmos 1241 Rocket 4.4 18:53:03 10° SSW 18:59:03 72° SSE 18:59:03 72° SSE
Cosmos 2369 4.2 18:54:38 10° SW 19:00:13 58° WNW 19:01:30 47° NNW
Cosmos 2278 4.1 18:56:25 10° SW 19:02:01 59° WNW 19:03:06 50° NNW
NOSS 3-4 (A) 3.6 19:01:14 10° SSW 19:06:29 63° S 19:06:29 63° S
NOSS 3-4 (C) 3.6 19:01:20 10° SSW 19:06:32 61° S 19:06:32 61° S
Cosmos 2263 Rocket 4.4 19:05:18 10° N 19:05:47 12° N 19:05:47 12° N
Gbstr 26 Del rocket 4.2 19:03:04 10° SW 19:10:44 71° SSE 19:10:44 71° SSE
Cosmos 1697 Rocket 3.5 19:21:51 10° SW 19:26:11 48° WSW 19:26:11 48° WSW
CENTAUR R/B 3.1 19:28:05 10° NW 19:34:47 68° NNW 19:34:47 68° NNW
